Preview of NWS' New Version of Forecast
This preview is not operational and should not be used for support decisions.

Regional Weather Roundup (RWR)

Issued by National Weather Service (NWS)

                            
000
ASUS46 KSEW 212210
RWRWA 

WASHINGTON REGIONAL WEATHER ROUNDUP
NATIONAL WEATHER SERVICE SEATTLE WA
300 PM PDT WED AUG 21 2019

NOTE:"FAIR" INDICATES FEW OR NO CLOUDS BELOW 12,000 FEET WITH NO 
SIGNIFICANT WEATHER AND/OR OBSTRUCTIONS TO VISIBILITY.

WAZ507-509-555>559-212300-
SEATTLE, TACOMA, EVERETT, AND VICINITY
  
CITY           SKY/WX    TMP DP  RH WIND       PRES   REMARKS
EVERETT        CLOUDY    65  57  75 S8        29.99S                  
BOEING FIELD   CLOUDY    69  59  70 S8        29.97F                  
RENTON         CLOUDY    68  61  78 VRB3      29.96F                  
SEATAC AIRPORT CLOUDY    69  60  73 S8        29.97F                  
JBLM-MCCHORD   PTSUNNY   70  61  73 CALM      29.97F                  
PUYALLUP       CLOUDY    72  63  73 VRB7      29.97F                  
BREMERTON      PTSUNNY   67  60  78 S9        29.97F                  
JBLM-FT LEWIS  CLOUDY    67  67  99 SE5       29.96F                  
TACOMA NARROWS CLOUDY    64  61  90 VRB3      29.97F                  
$$
 
WAZ001-503-506-510-514-515-212300-
NORTH INTERIOR
  
CITY           SKY/WX    TMP DP  RH WIND       PRES   REMARKS
BELLINGHAM     CLOUDY    64  60  87 S7        29.96F FOG              
FRIDAY HARBOR  CLOUDY    60  58  92 SE3       29.97S FOG              
EASTSOUND      CLOUDY    63  61  94 S13       29.95S                  
PORT ANGELES   LGT RAIN  62  60  93 NW6       29.98S FOG              
EDIZ HOOK      CLOUDY    61  60  97 W5        29.98S                  
PORT TOWNSEND  CLOUDY    64  59  82 CALM      29.96F                  
NAS WHIDBEY    CLOUDY    63  56  78 W7        30.01S                  
ARLINGTON      LGT RAIN  65  61  87 SE7       29.98R                  
BURLINGTON     CLOUDY    68  61  77 SW7       29.98R                  
$$
 
WAZ020-022-039-040-504-511-512-212300-
SOUTHWEST INTERIOR
  
CITY           SKY/WX    TMP DP  RH WIND       PRES   REMARKS
SHELTON        CLOUDY    66  62  87 SW6       29.95F                  
OLYMPIA        CLOUDY    68  60  75 SW5       29.97S                  
CHEHALIS       CLOUDY    72  61  68 S10G16    29.96F                  
KELSO          CLOUDY    74  59  59 S12       29.98F                  
VANCOUVER      CLOUDY    71  58  63 SE10      29.99F                  
SCAPPOOSE, OR  CLOUDY    72  57  59 SE9       29.97F                  
PORTLAND, OR   LGT RAIN  73  59  61 S10       29.99F                  
$$
 
WAZ021-516-517-212300-
WASHINGTON COAST
  
CITY           SKY/WX    TMP DP  RH WIND       PRES   REMARKS
FORKS          CLOUDY    63  56  78 N10       29.99S                  
HOQUIAM        CLOUDY    63  63 100 W9        29.97S FOG              
ASTORIA, OR    LGT RAIN  63  61  93 SW14      29.98S FOG              
$$
 
WAZ019-023-024-040-567>569-212300-
CASCADE MOUNTAINS AND COLUMBIA GORGE
  
CITY           SKY/WX    TMP DP  RH WIND       PRES   REMARKS
STAMPEDE PASS  CLOUDY    56  53  90 W8        30.04                   
TROUTDALE, OR  CLOUDY    67  60  78 E7        30.01F                  
HOOD RIVER, OR RAIN      64  57  77 W8        29.99R                  
THE DALLES, OR CLOUDY    72  56  57 NW22G30   29.91F                  
$$

WAZ026-027-041>044-520-521-212300-
EAST SLOPES
  
CITY           SKY/WX    TMP DP  RH WIND       PRES   REMARKS
OMAK           CLOUDY    87  42  20 SW10      29.80S                  
WENATCHEE      CLOUDY    82  51  34 NW15      29.84F                  
ELLENSBURG     CLOUDY    76  53  44 NW21G26   29.88F                  
YAKIMA         CLOUDY    81  50  33 S6        29.86F                  
SUNNYSIDE ARPT CLOUDY    79  56  46 W5        29.86S                  
YAKIMA TC      FAIR      81  44  27 S10       29.85F                  
$$

WAZ028-034-035-212300-
COLUMBIA BASIN
  
CITY           SKY/WX    TMP DP  RH WIND       PRES   REMARKS
EPHRATA        CLOUDY    82  44  26 W14       29.83F                  
MOSES LAKE     CLOUDY    84  49  29 W18       29.84S                  
PASCO          CLOUDY    88  46  23 W16       29.83F                  
RICHLAND ARPT  CLOUDY    86  51  30 W15G24    29.83                   
HERMISTON, OR  CLOUDY    85  51  31 W17G29    29.86S                  
$$

WAZ036>038-212300-
NORTHEAST WASHINGTON
  
CITY           SKY/WX    TMP DP  RH WIND       PRES   REMARKS
SPOKANE GEIGER PTSUNNY   86  42  21 S14       29.87F                  
SPOKANE FELTS  MOSUNNY   90  41  18 SW10G18   29.84F                  
FAIRCHILD AFB  PTSUNNY   86  40  20 S13G18    29.87F                  
COEURDALENE,ID SUNNY     87  46  24 SW10G17   29.86F                  
DEER PARK      MOSUNNY   88  43  20 SW10      29.85F                  
$$

WAZ029>033-212300-
SOUTHEAST WASHINGTON
  
CITY           SKY/WX    TMP DP  RH WIND       PRES   REMARKS
PULLMAN        PTSUNNY   86  42  21 W13G20    29.91F                  
LEWISTON, ID   MOSUNNY   93  44  18 NW15      29.81F                  
WALLA WALLA    PTSUNNY   88  39  17 SW15      29.86F                  
PENDLETON, OR  CLOUDY    85  45  24 NW25G31   29.89S                  
$$